Sheldon, IA

7:00 AM CST on December 15, 2017 (GMT -0600)
Sheldon Municipal

Weather History for KSHL - February, 2014

Change the Weather History Date:

Saturday, February 1, 2014

  Actual Average Record
Temperature  
Mean Temperature 6 °F -  
Max Temperature 17 °F 25 °F 53 °F (1987)
Min Temperature -5 °F 5 °F -25 °F (1979)
Degree Days  
Heating Degree Days 58    
Moisture  
Dew Point 5 °F    
Average Humidity 77    
Maximum Humidity 93    
Minimum Humidity 67    
Precipitation  
Precipitation 0.00 in - - ()
Sea Level Pressure  
Sea Level Pressure 30.03 in    
Wind  
Wind Speed 11 mph (WNW)    
Max Wind Speed 22 mph    
Max Gust Speed 26 mph    
Visibility 9 miles    
Events Rain , Snow    
Averages and records for this station are not official NWS values.
T = Trace of Precipitation, MM = Missing Value Source: NWS Daily Summary

Daily Weather History Graph

Daily Weather History Graph

Search for Another Location

Airport or City:

Trip Planner

Search our weather history database for the weather conditions in past years. The results will help you decide how hot, cold, wet, or windy it might be!

Date:

Astronomy

Feb. 01, 2014 Rise Set
Actual Time 7:38 AM CST 5:35 PM CST
Civil Twilight 7:08 AM CST 6:05 PM CST
Nautical Twilight 6:34 AM CST 6:39 PM CST
Astronomical Twilight 6:01 AM CST 7:13 PM CST
Moon 8:24 AM CST (2/1) 8:17 PM CST (2/1)
Length of Visible Light 10h 57m
Length of Day
9h 56m
Waxing Crescent, 5% of the Moon is Illuminated
Feb 1
Waxing Crescent
Feb 6
First Quarter
Feb 14
Full
Feb 22
Last Quarter
Mar 1
New

Hourly Weather History & Observations

Time (CST) Temp. Windchill Dew Point Humidity Pressure Visibility Wind Dir Wind Speed Gust Speed Precip Events Conditions
12:15 AM 14.0 °F 3.9 °F 5.0 °F 67% 29.92 in 10.0 mi South 6.9 mph - N/A   Overcast
12:35 AM 14.0 °F 3.9 °F 6.8 °F 73% 29.92 in 10.0 mi South 6.9 mph - N/A   Overcast
12:55 AM 15.8 °F 4.2 °F 6.8 °F 68% 29.92 in 10.0 mi South 9.2 mph - N/A   Overcast
1:15 AM 15.8 °F 3.4 °F 6.8 °F 68% 29.91 in 10.0 mi SSE 10.4 mph - N/A   Mostly Cloudy
1:35 AM 15.8 °F 2.7 °F 8.6 °F 73% 29.91 in 5.0 mi South 11.5 mph 17.3 mph N/A Snow Light Snow
1:55 AM 15.8 °F 5.1 °F 10.4 °F 79% 29.91 in 4.0 mi South 8.1 mph - N/A Snow Light Snow
2:15 AM 15.8 °F 4.2 °F 10.4 °F 79% 29.91 in 3.0 mi South 9.2 mph - N/A Snow Light Snow
2:35 AM 15.8 °F 4.2 °F 12.2 °F 86% 29.91 in 2.0 mi South 9.2 mph - N/A Snow Light Snow
2:55 AM 15.8 °F 4.2 °F 12.2 °F 86% 29.90 in 2.0 mi SSW 9.2 mph - N/A Snow Light Snow
3:15 AM 17.6 °F 6.4 °F 14.0 °F 86% 29.90 in 3.0 mi South 9.2 mph - N/A Snow Light Snow
3:35 AM 17.6 °F 7.3 °F 14.0 °F 86% 29.89 in 2.5 mi SSW 8.1 mph - N/A Snow Light Snow
3:55 AM 17.6 °F 7.3 °F 14.0 °F 86% 29.88 in 3.0 mi South 8.1 mph - N/A Snow Light Snow
4:15 AM 17.6 °F 7.3 °F 14.0 °F 86% 29.87 in 3.0 mi South 8.1 mph - N/A Snow Light Snow
4:35 AM 17.6 °F 7.3 °F 14.0 °F 86% 29.86 in 4.0 mi South 8.1 mph - N/A   Mostly Cloudy
4:55 AM 17.6 °F 6.4 °F 14.0 °F 86% 29.86 in 6.0 mi SSW 9.2 mph - N/A   Overcast
5:15 AM 17.6 °F 7.3 °F 14.0 °F 86% 29.87 in 10.0 mi SSW 8.1 mph - N/A   Overcast
5:35 AM 17.6 °F 7.3 °F 15.8 °F 93% 29.88 in 10.0 mi SSW 8.1 mph - N/A   Overcast
5:55 AM 17.6 °F 6.4 °F 15.8 °F 93% 29.88 in 10.0 mi SW 9.2 mph - N/A   Overcast
6:15 AM 17.6 °F 8.2 °F 14.0 °F 86% 29.88 in 10.0 mi SW 6.9 mph - N/A   Overcast
6:35 AM 17.6 °F 10.7 °F 14.0 °F 86% 29.89 in 10.0 mi SW 4.6 mph - N/A   Overcast
6:55 AM 17.6 °F 8.2 °F 14.0 °F 86% 29.89 in 10.0 mi SW 6.9 mph - N/A   Overcast
7:15 AM 17.6 °F 6.4 °F 15.8 °F 93% 29.89 in 10.0 mi WSW 9.2 mph - N/A   Overcast
7:35 AM 17.6 °F 6.4 °F 14.0 °F 86% 29.90 in 10.0 mi West 9.2 mph - N/A   Overcast
7:55 AM 17.6 °F 6.4 °F 15.8 °F 93% 29.91 in 10.0 mi WNW 9.2 mph - N/A   Overcast
8:15 AM 15.8 °F 0.3 °F 12.2 °F 86% 29.92 in 10.0 mi NW 16.1 mph - N/A   Mostly Cloudy
8:35 AM 14.0 °F 0.5 °F 8.6 °F 79% 29.94 in 10.0 mi NW 11.5 mph - N/A   Partly Cloudy
8:55 AM 12.2 °F -1.8 °F 6.8 °F 79% 29.95 in 10.0 mi NW 11.5 mph - N/A   Clear
9:15 AM 12.2 °F -4.8 °F 6.8 °F 79% 29.95 in 10.0 mi NNW 17.3 mph - N/A   Clear
9:35 AM 12.2 °F -4.3 °F 6.8 °F 79% 29.97 in 10.0 mi NW 16.1 mph 23.0 mph N/A   Clear
9:55 AM 14.0 °F -4.3 °F 6.8 °F 73% 29.98 in 10.0 mi NNW 21.9 mph - N/A   Mostly Cloudy
10:15 AM 12.2 °F -4.8 °F 6.8 °F 79% 29.99 in 8.0 mi NW 17.3 mph 26.5 mph N/A   Overcast
10:35 AM 12.2 °F -5.8 °F 5.0 °F 73% 30.00 in 9.0 mi NNW 19.6 mph - N/A   Scattered Clouds
10:55 AM 12.2 °F -6.7 °F 5.0 °F 73% 30.01 in 8.0 mi NNW 21.9 mph - N/A   Partly Cloudy
11:15 AM 14.0 °F -1.4 °F 5.0 °F 67% 30.03 in 10.0 mi NNW 15.0 mph - N/A   Clear
11:35 AM 12.2 °F -5.8 °F 5.0 °F 73% 30.02 in - NNW 19.6 mph - N/A   Scattered Clouds
11:55 AM 12.2 °F -5.8 °F 5.0 °F 73% 30.03 in 10.0 mi NNW 19.6 mph - N/A   Mostly Cloudy
12:15 PM 12.2 °F -5.3 °F 5.0 °F 73% 30.03 in 10.0 mi NNW 18.4 mph - N/A   Mostly Cloudy
12:35 PM 12.2 °F -4.8 °F 5.0 °F 73% 30.03 in 10.0 mi NNW 17.3 mph - N/A   Mostly Cloudy
12:55 PM 12.2 °F -4.3 °F 5.0 °F 73% 30.04 in 10.0 mi NW 16.1 mph - N/A   Overcast
1:15 PM 12.2 °F -5.3 °F 5.0 °F 73% 30.04 in 10.0 mi NNW 18.4 mph - N/A   Overcast
1:35 PM 14.0 °F -1.4 °F 5.0 °F 67% 30.04 in 10.0 mi NW 15.0 mph 21.9 mph N/A Snow Light Snow
1:55 PM 12.2 °F -5.8 °F 5.0 °F 73% 30.05 in 10.0 mi NNW 19.6 mph - N/A   Overcast
2:15 PM 12.2 °F -5.3 °F 5.0 °F 73% 30.05 in 10.0 mi NW 18.4 mph - N/A   Light Freezing Rain
2:35 PM 12.2 °F -4.8 °F 5.0 °F 73% 30.06 in 10.0 mi NNW 17.3 mph 24.2 mph N/A Rain Light Freezing Rain
2:55 PM 12.2 °F -4.3 °F 5.0 °F 73% 30.06 in 10.0 mi NNW 16.1 mph 23.0 mph N/A   Overcast
3:15 PM 12.2 °F -5.3 °F 5.0 °F 73% 30.07 in 10.0 mi NNW 18.4 mph 25.3 mph N/A   Overcast
3:35 PM 12.2 °F -4.8 °F 5.0 °F 73% 30.08 in 10.0 mi NW 17.3 mph 23.0 mph N/A   Overcast
3:55 PM 12.2 °F -5.3 °F 5.0 °F 73% 30.09 in 10.0 mi NW 18.4 mph - N/A   Overcast
4:15 PM 12.2 °F -5.3 °F 3.2 °F 67% 30.10 in 10.0 mi NNW 18.4 mph - N/A   Mostly Cloudy
4:35 PM 10.4 °F -7.7 °F 3.2 °F 73% 30.11 in 10.0 mi NW 18.4 mph - N/A   Scattered Clouds
4:55 PM 10.4 °F -7.7 °F 1.4 °F 67% 30.11 in 10.0 mi NNW 18.4 mph - N/A   Overcast
5:15 PM 10.4 °F -5.4 °F 1.4 °F 67% 30.13 in 10.0 mi NNW 13.8 mph 20.7 mph N/A   Overcast
5:35 PM 8.6 °F -5.5 °F 1.4 °F 73% 30.14 in 10.0 mi NW 10.4 mph - N/A   Overcast
5:55 PM 8.6 °F -5.5 °F 1.4 °F 73% 30.14 in 10.0 mi NW 10.4 mph - N/A   Overcast
6:15 PM 6.8 °F -9.3 °F -0.4 °F 72% 30.15 in 10.0 mi NW 12.7 mph - N/A   Overcast
6:35 PM 5.0 °F -10.0 °F -2.2 °F 72% 30.16 in 10.0 mi NW 10.4 mph - N/A   Mostly Cloudy
6:55 PM 5.0 °F -9.1 °F -2.2 °F 72% 30.17 in 10.0 mi NW 9.2 mph - N/A   Partly Cloudy
7:15 PM 3.2 °F -11.3 °F -2.2 °F 78% 30.18 in 10.0 mi NNW 9.2 mph - N/A   Clear
7:35 PM 3.2 °F -11.3 °F -4.0 °F 72% 30.18 in 10.0 mi NW 9.2 mph - N/A   Clear
7:55 PM 1.4 °F -15.3 °F -4.0 °F 78% 30.19 in 10.0 mi NW 11.5 mph - N/A   Clear
8:15 PM 1.4 °F -14.5 °F -5.8 °F 72% 30.20 in 10.0 mi NW 10.4 mph - N/A   Clear
8:35 PM -0.4 °F -17.6 °F -5.8 °F 78% 30.20 in 10.0 mi NW 11.5 mph - N/A   Clear
8:55 PM -0.4 °F -14.7 °F -5.8 °F 78% 30.21 in 10.0 mi NW 8.1 mph - N/A   Clear
9:15 PM -0.4 °F -14.7 °F -5.8 °F 78% 30.21 in 10.0 mi NNW 8.1 mph - N/A   Clear
9:35 PM -2.2 °F -16.8 °F -7.6 °F 78% 30.22 in 10.0 mi NW 8.1 mph - N/A   Clear
9:55 PM -0.4 °F -16.7 °F -5.8 °F 78% 30.23 in 10.0 mi NW 10.4 mph - N/A   Clear
10:15 PM -2.2 °F -16.8 °F -7.6 °F 78% 30.23 in 10.0 mi NW 8.1 mph - N/A   Clear
10:35 PM -4.0 °F -19.0 °F -9.4 °F 78% 30.24 in 10.0 mi NW 8.1 mph - N/A   Clear
10:55 PM -4.0 °F -19.0 °F -9.4 °F 78% 30.24 in 10.0 mi WNW 8.1 mph - N/A   Clear
11:15 PM -4.0 °F -17.8 °F -9.4 °F 78% 30.24 in 10.0 mi WNW 6.9 mph - N/A   Clear
11:35 PM -4.0 °F -17.8 °F -9.4 °F 78% 30.24 in 10.0 mi WNW 6.9 mph - N/A   Clear
11:55 PM -5.8 °F -21.2 °F -11.2 °F 77% 30.24 in 10.0 mi WNW 8.1 mph - N/A   Clear